YO3IEZ-WX Weather Reports


time (UTC)temp
C
wind
direction
speed
KPH
gust
KPH
rain 1hr
cm
rain 24hr
cm
rain mn
cm
humidity
%
barometer
mb
20260507104547 23 167 1.6 16.1 0.00 0.00 0.00 42 1005.6
20260507103050 23 128 3.2 14.5 0.00 0.00 0.00 42 1005.8
20260507101550 22 107 6.4 17.7 0.00 0.00 0.00 46 1005.8
20260507100054 23 176 3.2 11.3 0.00 0.00 0.00 43 1005.9
20260507094544 22 151 3.2 16.1 0.00 0.00 0.00 46 1005.9
20260507093042 21 115 9.7 14.5 0.00 0.00 0.00 42 1006.1
20260507091608 21 115 8.0 14.5 0.00 0.00 0.00 47 1006.1
20260507090050 21 128 1.6 12.9 0.00 0.00 0.00 46 1006.1
20260507084557 21 128 8.0 14.5 0.00 0.00 0.00 46 1006.1
20260507083053 20 111 8.0 17.7 0.00 0.00 0.00 46 1006.0
20260507081550 20 205 6.4 16.1 0.00 0.00 0.00 46 1006.0
20260507080049 20 132 6.4 16.1 0.00 0.00 0.00 45 1006.0
20260507074550 19 115 9.7 17.7 0.00 0.00 0.00 46 1005.8
20260507073051 20 165 3.2 11.3 0.00 0.00 0.00 48 1005.9
20260507071546 18 0 1.6 11.3 0.00 0.00 0.00 52 1006.1
20260507070100 17 91 1.6 14.5 0.00 0.00 0.00 54 1006.1
20260507064548 17 133 1.6 14.5 0.00 0.00 0.00 57 1006.0
20260507063051 16 0 4.8 11.3 0.00 0.00 0.00 60 1006.0
20260507061547 16 38 3.2 8.0 0.00 0.00 0.00 61 1005.9
20260507054554 15 134 3.2 11.3 0.00 0.00 0.00 65 1006.2
20260507053051 14 118 3.2 9.7 0.00 0.00 0.00 68 1006.0
20260507051549 13 124 4.8 16.1 0.00 0.00 0.00 70 1006.0
20260507050050 12 110 6.4 14.5 0.00 0.00 0.00 72 1006.0
20260507044548 12 128 6.4 14.5 0.00 0.00 0.00 74 1006.0
20260507043047 12 111 3.2 11.3 0.00 0.00 0.00 75 1006.0
20260507041547 11 0 4.8 12.9 0.00 0.00 0.00 77 1005.7
20260507040045 11 84 1.6 11.3 0.00 0.00 0.00 77 1005.6
20260507034558 11 36 6.4 12.9 0.00 0.00 0.00 77 1005.7
20260507033049 11 79 3.2 9.7 0.00 0.00 0.00 78 1005.6
20260507031552 11 61 3.2 12.9 0.00 0.00 0.00 78 1005.4
20260507030054 11 67 4.8 16.1 0.00 0.00 0.00 78 1005.3
20260507024554 11 34 4.8 9.7 0.00 0.00 0.00 78 1005.3
20260507023439 11 69 3.2 16.1 0.00 0.00 0.00 77 1005.3
20260507020054 11 23 4.8 11.3 0.00 0.00 0.00 76 1005.2
20260507014550 11 0 3.2 14.5 0.00 0.00 0.00 75 1005.1
20260507013052 11 54 4.8 9.7 0.00 0.00 0.00 75 1005.1
20260507011548 11 67 3.2 9.7 0.00 0.00 0.00 75 1005.1
20260507010105 12 41 3.2 8.0 0.00 0.00 0.00 73 1005.1
20260507004549 12 53 3.2 11.3 0.00 0.00 0.00 70 1005.0
20260507003052 12 0 1.6 11.3 0.00 0.00 0.00 67 1004.8
20260507001557 13 0 1.6 9.7 0.00 0.00 0.00 65 1004.7
20260507000056 13 0 1.6 6.4 0.00 0.00 0.00 64 1004.8
20260506234550 13 130 1.6 6.4 0.00 0.00 0.00 63 1004.8
20260506233100 13 134 0.0 8.0 0.00 0.00 0.00 63 1004.9
20260506231550 13 135 3.2 6.4 0.00 0.00 0.00 64 1005.0
20260506230052 13 138 3.2 8.0 0.00 0.00 0.00 66 1005.0
20260506224553 13 0 3.2 11.3 0.00 0.00 0.00 67 1005.0
20260506223058 13 0 1.6 9.7 0.00 0.00 0.00 67 1005.0
20260506221550 13 171 4.8 9.7 0.00 0.00 0.00 65 1005.0
20260506220053 14 169 4.8 11.3 0.00 0.00 0.00 64 1004.9
20260506214601 14 170 4.8 11.3 0.00 0.00 0.00 64 1004.8
20260506213049 14 152 3.2 16.1 0.00 0.00 0.00 65 1004.9
20260506211554 15 126 4.8 14.5 0.00 0.00 0.00 65 1004.7
20260506210053 15 171 1.6 14.5 0.00 0.00 0.00 64 1004.9
20260506204554 15 159 6.4 12.9 0.00 0.00 0.00 64 1004.8
20260506203051 15 162 4.8 12.9 0.00 0.00 0.00 68 1004.8
20260506201552 15 154 3.2 11.3 0.00 0.00 0.00 68 1004.8
20260506200057 16 157 4.8 14.5 0.00 0.00 0.00 68 1004.7
20260506194553 16 159 6.4 12.9 0.00 0.00 0.00 67 1004.7
20260506193054 16 170 4.8 12.9 0.00 0.00 0.00 66 1004.6
20260506191554 17 153 3.2 12.9 0.00 0.00 0.00 64 1004.5
20260506190051 17 139 8.0 16.1 0.00 0.00 0.00 63 1004.3
20260506184545 17 156 3.2 16.1 0.00 0.00 0.00 62 1004.3
20260506183051 18 142 4.8 20.9 0.00 0.00 0.00 59 1004.2
20260506181551 19 157 8.0 19.3 0.00 0.00 0.00 56 1004.0
20260506180047 20 108 12.9 25.7 0.00 0.00 0.00 53 1003.7
20260506174555 20 139 6.4 19.3 0.00 0.00 0.00 53 1003.6
20260506173111 21 135 8.0 17.7 0.00 0.00 0.00 53 1003.5
20260506171552 21 136 6.4 19.3 0.00 0.00 0.00 51 1003.5
20260506170051 21 191 8.0 20.9 0.00 0.00 0.00 50 1003.5
20260506164546 22 109 6.4 14.5 0.00 0.00 0.00 49 1003.5
20260506163054 22 154 6.4 22.5 0.00 0.00 0.00 47 1003.4
20260506161550 23 144 4.8 19.3 0.00 0.00 0.00 46 1003.4
20260506160052 23 153 11.3 20.9 0.00 0.00 0.00 45 1003.3
20260506154551 23 143 3.2 17.7 0.00 0.00 0.00 44 1003.3
20260506153047 24 148 3.2 16.1 0.00 0.00 0.00 42 1003.3
20260506151547 24 110 9.7 14.5 0.00 0.00 0.00 42 1003.4
20260506144603 25 161 3.2 16.1 0.00 0.00 0.00 40 1003.5
20260506143054 25 136 8.0 16.1 0.00 0.00 0.00 40 1003.4
20260506141546 25 150 6.4 14.5 0.00 0.00 0.00 40 1003.6
20260506140104 25 127 6.4 16.1 0.00 0.00 0.00 40 1003.5
20260506134546 25 128 8.0 14.5 0.00 0.00 0.00 41 1003.6
20260506133102 25 144 6.4 16.1 0.00 0.00 0.00 40 1003.7
20260506131547 25 161 8.0 19.3 0.00 0.00 0.00 41 1003.7
20260506130134 25 136 3.2 17.7 0.00 0.00 0.00 41 1003.8
20260506124552 25 208 4.8 12.9 0.00 0.00 0.00 41 1003.9
20260506123052 26 133 4.8 12.9 0.00 0.00 0.00 40 1004.0
20260506121555 26 192 3.2 11.3 0.00 0.00 0.00 39 1004.1
20260506120055 25 211 6.4 14.5 0.00 0.00 0.00 40 1004.3
20260506114547 24 159 8.0 16.1 0.00 0.00 0.00 42 1004.4
20260506113050 24 169 3.2 19.3 0.00 0.00 0.00 42 1004.3
20260506111547 25 205 3.2 16.1 0.00 0.00 0.00 41 1004.4